TimeMST,TemperatureF,Dew PointF,Humidity,Sea Level PressureIn,VisibilityMPH,Wind Direction,Wind SpeedMPH,Gust SpeedMPH,PrecipitationIn,Events,Conditions,WindDirDegrees,DateUTC
12:15 AM,46.4,24.8,43,30.26,10.0,Calm,Calm,-,N/A,,Clear,0,2013-11-10 07:15:00
12:35 AM,46.4,24.8,43,30.25,10.0,Calm,Calm,-,N/A,,Clear,0,2013-11-10 07:35:00
12:55 AM,46.4,24.8,43,30.25,10.0,Calm,Calm,-,N/A,,Clear,0,2013-11-10 07:55:00
1:15 AM,46.4,24.8,43,30.25,10.0,Calm,Calm,-,N/A,,Clear,0,2013-11-10 08:15:00
1:35 AM,44.6,24.8,46,30.26,10.0,Calm,Calm,-,N/A,,Clear,0,2013-11-10 08:35:00
1:55 AM,46.4,24.8,43,30.26,10.0,Calm,Calm,-,N/A,,Clear,0,2013-11-10 08:55:00
2:15 AM,46.4,24.8,43,30.26,10.0,Calm,Calm,-,N/A,,Clear,0,2013-11-10 09:15:00
2:35 AM,44.6,24.8,46,30.26,10.0,Calm,Calm,-,N/A,,Clear,0,2013-11-10 09:35:00
2:55 AM,46.4,24.8,43,30.26,10.0,Calm,Calm,-,N/A,,Clear,0,2013-11-10 09:55:00
3:15 AM,46.4,24.8,43,30.26,10.0,Calm,Calm,-,N/A,,Clear,0,2013-11-10 10:15:00
3:35 AM,46.4,24.8,43,30.26,10.0,NNW,3.5,-,N/A,,Clear,340,2013-11-10 10:35:00
3:55 AM,46.4,24.8,43,30.26,10.0,Calm,Calm,-,N/A,,Clear,0,2013-11-10 10:55:00
4:15 AM,44.6,24.8,46,30.26,10.0,Calm,Calm,-,N/A,,Clear,0,2013-11-10 11:15:00
4:35 AM,44.6,24.8,46,30.26,10.0,Calm,Calm,-,N/A,,Clear,0,2013-11-10 11:35:00
4:55 AM,44.6,24.8,46,30.26,10.0,Calm,Calm,-,N/A,,Clear,0,2013-11-10 11:55:00
5:15 AM,44.6,24.8,46,30.26,10.0,Calm,Calm,-,N/A,,Clear,0,2013-11-10 12:15:00
5:35 AM,46.4,24.8,43,30.26,10.0,Calm,Calm,-,N/A,,Clear,0,2013-11-10 12:35:00
5:55 AM,46.4,24.8,43,30.27,10.0,Calm,Calm,-,N/A,,Clear,0,2013-11-10 12:55:00
6:15 AM,46.4,24.8,43,30.27,10.0,Calm,Calm,-,N/A,,Clear,0,2013-11-10 13:15:00
6:35 AM,44.6,24.8,46,30.27,10.0,Calm,Calm,-,N/A,,Clear,0,2013-11-10 13:35:00
6:55 AM,44.6,24.8,46,30.28,10.0,Calm,Calm,-,N/A,,Clear,0,2013-11-10 13:55:00
7:15 AM,46.4,24.8,43,30.28,10.0,Calm,Calm,-,N/A,,Clear,0,2013-11-10 14:15:00
7:35 AM,46.4,24.8,43,30.29,10.0,Calm,Calm,-,N/A,,Clear,0,2013-11-10 14:35:00
7:55 AM,46.4,24.8,43,30.30,10.0,Calm,Calm,-,N/A,,Clear,0,2013-11-10 14:55:00
8:15 AM,50.0,26.6,40,30.31,10.0,Calm,Calm,-,N/A,,Clear,0,2013-11-10 15:15:00
8:35 AM,51.8,26.6,38,30.31,10.0,Calm,Calm,-,N/A,,Clear,0,2013-11-10 15:35:00
8:55 AM,51.8,26.6,38,30.32,10.0,Calm,Calm,-,N/A,,Clear,0,2013-11-10 15:55:00
9:15 AM,59.0,30.2,34,30.32,10.0,Calm,Calm,-,N/A,,Clear,0,2013-11-10 16:15:00
9:35 AM,60.8,28.4,29,30.31,10.0,Calm,Calm,-,N/A,,Clear,0,2013-11-10 16:35:00
9:55 AM,64.4,28.4,26,30.32,10.0,Variable,4.6,-,N/A,,Clear,0,2013-11-10 16:55:00
10:15 AM,64.4,26.6,24,30.31,10.0,Calm,Calm,-,N/A,,Clear,0,2013-11-10 17:15:00
10:35 AM,66.2,26.6,23,30.31,10.0,Calm,Calm,-,N/A,,Clear,0,2013-11-10 17:35:00
10:55 AM,66.2,28.4,24,30.31,10.0,South,4.6,-,N/A,,Clear,170,2013-11-10 17:55:00
11:15 AM,68.0,28.4,23,30.30,10.0,SW,3.5,-,N/A,,Clear,220,2013-11-10 18:15:00
11:35 AM,66.2,28.4,24,30.29,9.0,Variable,3.5,-,N/A,,Clear,0,2013-11-10 18:35:00
11:55 AM,68.0,30.2,24,30.29,10.0,Variable,4.6,-,N/A,,Clear,0,2013-11-10 18:55:00
12:15 PM,69.8,32.0,25,30.28,10.0,Variable,6.9,13.8,N/A,,Clear,0,2013-11-10 19:15:00
12:35 PM,69.8,32.0,25,30.27,10.0,SW,6.9,12.7,N/A,,Clear,220,2013-11-10 19:35:00
12:55 PM,68.0,30.2,24,30.26,10.0,SW,6.9,-,N/A,,Clear,220,2013-11-10 19:55:00
1:15 PM,68.0,32.0,26,30.25,10.0,Variable,4.6,-,N/A,,Clear,0,2013-11-10 20:15:00
1:35 PM,69.8,32.0,25,30.24,10.0,SSW,5.8,-,N/A,,Clear,210,2013-11-10 20:35:00
1:55 PM,68.0,32.0,26,30.24,10.0,Variable,6.9,-,N/A,,Clear,0,2013-11-10 20:55:00
2:15 PM,68.0,32.0,26,30.24,10.0,South,6.9,13.8,N/A,,Clear,190,2013-11-10 21:15:00
2:35 PM,68.0,32.0,26,30.24,10.0,SSW,8.1,-,N/A,,Clear,200,2013-11-10 21:35:00
2:55 PM,68.0,32.0,26,30.24,10.0,SW,6.9,-,N/A,,Clear,220,2013-11-10 21:55:00
3:15 PM,66.2,32.0,28,30.24,10.0,SSW,8.1,-,N/A,,Clear,200,2013-11-10 22:15:00
3:35 PM,66.2,32.0,28,30.24,10.0,SSW,4.6,-,N/A,,Clear,210,2013-11-10 22:35:00
3:55 PM,68.0,32.0,26,30.24,10.0,Variable,3.5,-,N/A,,Clear,0,2013-11-10 22:55:00
4:15 PM,66.2,32.0,28,30.24,10.0,SW,5.8,-,N/A,,Clear,220,2013-11-10 23:15:00
4:35 PM,66.2,30.2,26,30.24,10.0,Calm,Calm,-,N/A,,Clear,0,2013-11-10 23:35:00
4:55 PM,64.4,30.2,28,30.25,10.0,Calm,Calm,-,N/A,,Clear,0,2013-11-10 23:55:00
5:15 PM,64.4,30.2,28,30.25,10.0,Calm,Calm,-,N/A,,Clear,0,2013-11-11 00:15:00
5:35 PM,62.6,30.2,30,30.25,10.0,South,3.5,-,N/A,,Clear,170,2013-11-11 00:35:00
5:55 PM,60.8,30.2,31,30.25,10.0,SSE,3.5,-,N/A,,Clear,150,2013-11-11 00:55:00
6:15 PM,60.8,30.2,31,30.25,10.0,ENE,4.6,-,N/A,,Clear,70,2013-11-11 01:15:00
6:35 PM,60.8,30.2,31,30.26,10.0,East,4.6,-,N/A,,Clear,100,2013-11-11 01:35:00
6:55 PM,59.0,30.2,34,30.26,10.0,East,5.8,-,N/A,,Clear,90,2013-11-11 01:55:00
7:15 PM,59.0,30.2,34,30.26,10.0,East,4.6,-,N/A,,Clear,100,2013-11-11 02:15:00
7:35 PM,57.2,30.2,36,30.27,10.0,North,3.5,-,N/A,,Clear,360,2013-11-11 02:35:00
7:55 PM,55.4,30.2,38,30.27,10.0,NNW,4.6,-,N/A,,Clear,340,2013-11-11 02:55:00
8:15 PM,55.4,30.2,38,30.27,10.0,NNW,3.5,-,N/A,,Clear,340,2013-11-11 03:15:00
8:35 PM,57.2,28.4,33,30.27,10.0,North,4.6,-,N/A,,Clear,10,2013-11-11 03:35:00
8:55 PM,55.4,28.4,36,30.27,10.0,NNE,5.8,-,N/A,,Clear,20,2013-11-11 03:55:00
9:15 PM,53.6,28.4,38,30.27,10.0,Calm,Calm,-,N/A,,Clear,0,2013-11-11 04:15:00
9:35 PM,53.6,28.4,38,30.27,10.0,Calm,Calm,-,N/A,,Clear,0,2013-11-11 04:35:00
9:55 PM,53.6,28.4,38,30.27,10.0,Calm,Calm,-,N/A,,Clear,0,2013-11-11 04:55:00
10:15 PM,55.4,28.4,36,30.27,10.0,NNE,5.8,-,N/A,,Clear,20,2013-11-11 05:15:00
10:35 PM,53.6,28.4,38,30.26,10.0,NNE,5.8,-,N/A,,Clear,20,2013-11-11 05:35:00
10:55 PM,55.4,28.4,36,30.26,10.0,NE,5.8,-,N/A,,Clear,40,2013-11-11 05:55:00
11:15 PM,53.6,28.4,38,30.26,10.0,NNE,3.5,-,N/A,,Clear,20,2013-11-11 06:15:00
11:55 PM,53.6,28.4,38,30.26,10.0,Calm,Calm,-,N/A,,Clear,0,2013-11-11 06:55:00